Location: C�an Torras
(41.5052°N, 1.9280°E)
Time: 19:05:05
(UTC+00:00)

Meteor 2-1 Rocket - Pass Details

Date: 20 January 2021
Orbit: 827 x 910 km, 81.3° (Epoch: 02 March)

Event Time Altitude Azimuth Distance (km) Brightness Sun altitude
Rises 18:41:26 0° 348° (NNW) 3,412 7.4 -20.0°
Reaches altitude 10° 18:43:52 10° 348° (NNW) 2,463 6.7 -20.5°
Maximum altitude 18:49:26 78° 262° (W) 854 4.3 -21.5°
Drops below altitude 10° 18:54:54 10° 178° (S) 2,422 6.6 -22.5°
Sets 18:57:17 0° 176° (S) 3,351 7.4 -22.9°
